When you browse on this site, cookies collect data to enhance your experience and personalize the content and advertising you see.
Visit our Privacy Policy to learn more. By continuing to use the site, you agree to this use of cookies and data.
  • In Hungary
  • List of Countries
  • For 7 days
  • Water Temperature
  • Weather Map
  • News
  • Weather Widgets
  • user-avatar
    Login

    Hourly Weather Bedzino

    Today, 7 December, Saturday

    Time Temperature Precipitation Wind Pressure Humidity
    00:00 +1°C° 0.2 mm 9 mps 750 mmHg 88%
    01:00 +1°C° 0 mm 9 mps 749 mmHg 85%
    02:00 +1°C° 0.3 mm 9 mps 749 mmHg 87%
    03:00 +2°C° 0.3 mm 9 mps 748 mmHg 89%
    04:00 +2°C° 0.3 mm 9 mps 747 mmHg 91%
    05:00 +2°C° 0.8 mm 9 mps 747 mmHg 91%
    06:00 +3°C° 0.8 mm 9 mps 747 mmHg 91%
    07:00 +3°C° 0.8 mm 9 mps 747 mmHg 90%
    08:00 +5°C° 0.5 mm 9 mps 747 mmHg 90%
    09:00 +5°C° 0.5 mm 9 mps 747 mmHg 90%
    10:00 +5°C° 0.5 mm 9 mps 747 mmHg 90%
    11:00 +5°C° 0.4 mm 9 mps 747 mmHg 87%
    12:00 +6°C° 0.4 mm 10 mps 748 mmHg 85%
    13:00 +6°C° 0.4 mm 11 mps 748 mmHg 82%
    14:00 +6°C° 0 mm 10 mps 749 mmHg 80%
    15:00 +5°C° 0 mm 10 mps 749 mmHg 79%
    16:00 +5°C° 0 mm 9 mps 750 mmHg 78%
    17:00 +5°C° 0.1 mm 9 mps 750 mmHg 79%
    18:00 +5°C° 0.1 mm 9 mps 751 mmHg 80%
    19:00 +5°C° 0.1 mm 9 mps 751 mmHg 81%
    20:00 +3°C° 0.1 mm 9 mps 752 mmHg 82%
    21:00 +4°C° 0.1 mm 8 mps 752 mmHg 82%
    22:00 +4°C° 0.1 mm 8 mps 752 mmHg 82%
    23:00 +4°C° 0.1 mm 8 mps 752 mmHg 84%

    Tomorrow, 8 December, Sunday

    Time Temperature Precipitation Wind Pressure Humidity
    00:00 +4°C° 0.1 mm 7 mps 753 mmHg 87%
    01:00 +4°C° 0.1 mm 6 mps 753 mmHg 89%
    02:00 +4°C° 0.1 mm 6 mps 752 mmHg 90%
    03:00 +4°C° 0.1 mm 6 mps 752 mmHg 91%
    04:00 +4°C° 0.1 mm 6 mps 752 mmHg 93%
    05:00 +5°C° 0.1 mm 6 mps 752 mmHg 91%
    06:00 +5°C° 0.1 mm 7 mps 752 mmHg 89%
    07:00 +5°C° 0.1 mm 7 mps 752 mmHg 88%
    08:00 +5°C° 0 mm 8 mps 751 mmHg 86%
    09:00 +5°C° 0 mm 9 mps 750 mmHg 85%
    10:00 +5°C° 0 mm 9 mps 749 mmHg 84%
    11:00 +5°C° 0 mm 10 mps 749 mmHg 81%
    12:00 +5°C° 0 mm 10 mps 748 mmHg 79%
    13:00 +6°C° 0 mm 10 mps 747 mmHg 77%
    14:00 +6°C° 0.5 mm 10 mps 746 mmHg 80%
    15:00 +6°C° 0.5 mm 10 mps 745 mmHg 83%
    16:00 +6°C° 0.5 mm 11 mps 744 mmHg 86%
    17:00 +7°C° 0.2 mm 10 mps 744 mmHg 85%
    18:00 +7°C° 0.2 mm 10 mps 744 mmHg 85%
    19:00 +7°C° 0.2 mm 10 mps 744 mmHg 84%
    20:00 +7°C° 0 mm 10 mps 744 mmHg 83%
    21:00 +6°C° 0 mm 9 mps 744 mmHg 82%
    22:00 +5°C° 0 mm 8 mps 744 mmHg 81%
    23:00 +5°C° 0 mm 8 mps 744 mmHg 82%

    Day after tomorrow, 9 December, Monday

    Time Temperature Precipitation Wind Pressure Humidity
    00:00 +4°C° 0 mm 8 mps 744 mmHg 84%
    01:00 +4°C° 0 mm 8 mps 744 mmHg 85%
    02:00 +4°C° 0 mm 8 mps 744 mmHg 85%
    03:00 +4°C° 0 mm 8 mps 743 mmHg 84%
    04:00 +4°C° 0 mm 8 mps 743 mmHg 84%
    05:00 +4°C° 0.1 mm 8 mps 743 mmHg 84%
    06:00 +4°C° 0.1 mm 8 mps 743 mmHg 84%
    07:00 +4°C° 0.1 mm 8 mps 743 mmHg 84%
    08:00 +4°C° 0.1 mm 8 mps 743 mmHg 82%
    09:00 +3°C° 0.1 mm 9 mps 743 mmHg 80%
    10:00 +3°C° 0.1 mm 9 mps 743 mmHg 77%
    11:00 +3°C° 0 mm 9 mps 743 mmHg 76%
    12:00 +5°C° 0 mm 9 mps 743 mmHg 74%
    13:00 +5°C° 0 mm 8 mps 743 mmHg 72%
    14:00 +5°C° 0.1 mm 8 mps 742 mmHg 76%
    15:00 +4°C° 0.1 mm 8 mps 742 mmHg 80%
    16:00 +4°C° 0.1 mm 8 mps 742 mmHg 84%
    17:00 +4°C° 0.5 mm 7 mps 742 mmHg 85%
    18:00 +4°C° 0.5 mm 7 mps 742 mmHg 86%
    19:00 +4°C° 0.5 mm 6 mps 742 mmHg 87%
    20:00 +4°C° 0.1 mm 6 mps 743 mmHg 86%
    21:00 +4°C° 0.1 mm 6 mps 743 mmHg 86%
    22:00 +4°C° 0.1 mm 6 mps 743 mmHg 85%
    23:00 +4°C° 0.1 mm 6 mps 744 mmHg 86%

    10 December, Tuesday

    Time Temperature Precipitation Wind Pressure Humidity
    00:00 +4°C° 0.1 mm 6 mps 744 mmHg 86%
    01:00 +4°C° 0.1 mm 6 mps 745 mmHg 87%
    02:00 +4°C° 0.2 mm 7 mps 746 mmHg 86%
    03:00 +4°C° 0.2 mm 7 mps 747 mmHg 86%
    04:00 +5°C° 0.2 mm 8 mps 747 mmHg 85%
    05:00 +4°C° 0.3 mm 8 mps 749 mmHg 85%
    06:00 +4°C° 0.3 mm 8 mps 750 mmHg 85%
    07:00 +4°C° 0.3 mm 8 mps 752 mmHg 85%
    08:00 +2°C° 0.4 mm 8 mps 753 mmHg 85%
    09:00 +1°C° 0.4 mm 8 mps 755 mmHg 85%
    10:00 0°C° 0.4 mm 9 mps 757 mmHg 84%
    11:00 +1°C° 0 mm 8 mps 758 mmHg 75%
    12:00 +2°C° 0 mm 7 mps 759 mmHg 65%
    13:00 +3°C° 0 mm 7 mps 760 mmHg 55%
    14:00 +2°C° 0 mm 6 mps 761 mmHg 59%
    15:00 +1°C° 0 mm 5 mps 762 mmHg 63%
    16:00 +1°C° 0 mm 4 mps 763 mmHg 67%
    17:00 +1°C° 0 mm 3 mps 763 mmHg 67%
    18:00 +1°C° 0 mm 3 mps 764 mmHg 66%
    19:00 +2°C° 0 mm 2 mps 764 mmHg 66%
    20:00 0°C° 0 mm 3 mps 764 mmHg 68%
    21:00 -1°C° 0 mm 4 mps 764 mmHg 70%
    22:00 -1°C° 0 mm 4 mps 764 mmHg 72%
    23:00 -1°C° 0 mm 5 mps 764 mmHg 70%

    11 December, Wednesday

    Time Temperature Precipitation Wind Pressure Humidity
    00:00 -1°C° 0 mm 5 mps 763 mmHg 69%
    01:00 -2°C° 0 mm 6 mps 763 mmHg 67%
    02:00 -2°C° 0 mm 7 mps 763 mmHg 63%
    03:00 -2°C° 0 mm 7 mps 762 mmHg 60%
    04:00 -2°C° 0 mm 8 mps 762 mmHg 56%
    05:00 -3°C° 0 mm 9 mps 761 mmHg 57%
    06:00 -1°C° 0 mm 9 mps 760 mmHg 58%
    07:00 -2°C° 0 mm 10 mps 760 mmHg 58%
    08:00 -2°C° 0 mm 10 mps 760 mmHg 56%
    09:00 -2°C° 0 mm 11 mps 759 mmHg 54%
    10:00 -1°C° 0 mm 11 mps 759 mmHg 52%
    11:00 0°C° 0.1 mm 10 mps 759 mmHg 56%
    12:00 -1°C° 0.1 mm 9 mps 758 mmHg 60%
    13:00 -1°C° 0.1 mm 9 mps 758 mmHg 65%
    14:00 -1°C° 0.3 mm 8 mps 758 mmHg 74%
    15:00 -2°C° 0.3 mm 8 mps 758 mmHg 83%
    16:00 -2°C° 0.3 mm 7 mps 758 mmHg 92%
    17:00 -2°C° 0.2 mm 7 mps 758 mmHg 92%
    18:00 -2°C° 0.2 mm 7 mps 757 mmHg 92%
    19:00 -2°C° 0.2 mm 7 mps 757 mmHg 91%
    20:00 -2°C° 0.1 mm 6 mps 757 mmHg 91%
    21:00 -2°C° 0.1 mm 6 mps 757 mmHg 90%
    22:00 -1°C° 0.1 mm 6 mps 757 mmHg 90%
    23:00 0°C° 0.3 mm 5 mps 757 mmHg 91%

    12 December, Thursday

    Time Temperature Precipitation Wind Pressure Humidity
    00:00 0°C° 0.3 mm 5 mps 756 mmHg 92%
    01:00 0°C° 0.3 mm 4 mps 756 mmHg 94%
    02:00 0°C° 0.2 mm 4 mps 756 mmHg 95%
    03:00 0°C° 0.2 mm 4 mps 756 mmHg 95%
    04:00 +1°C° 0.2 mm 4 mps 755 mmHg 96%
    05:00 +1°C° 0 mm 4 mps 755 mmHg 96%
    06:00 +1°C° 0 mm 4 mps 755 mmHg 96%
    07:00 +1°C° 0 mm 4 mps 755 mmHg 95%
    08:00 +1°C° 0 mm 4 mps 755 mmHg 94%
    09:00 +1°C° 0 mm 4 mps 755 mmHg 94%
    10:00 +1°C° 0 mm 5 mps 755 mmHg 93%
    11:00 +1°C° 0 mm 5 mps 754 mmHg 92%
    12:00 +2°C° 0 mm 5 mps 754 mmHg 91%
    13:00 +2°C° 0 mm 6 mps 754 mmHg 89%
    14:00 +2°C° 0 mm 6 mps 753 mmHg 89%
    15:00 +2°C° 0 mm 6 mps 753 mmHg 89%
    16:00 0°C° 0 mm 7 mps 753 mmHg 88%
    17:00 0°C° 0 mm 7 mps 753 mmHg 87%
    18:00 0°C° 0 mm 7 mps 753 mmHg 85%
    19:00 0°C° 0 mm 7 mps 752 mmHg 83%
    20:00 0°C° 0 mm 7 mps 752 mmHg 82%
    21:00 0°C° 0 mm 7 mps 751 mmHg 81%
    22:00 0°C° 0 mm 7 mps 750 mmHg 80%
    23:00 -1°C° 0 mm 7 mps 749 mmHg 82%
    Show more